Weather in Solothurn

Switzerland     47°12′33″N   7°31′52″E
temp.,
°C
wind,
m/s
gust,
m/s
humid.,
%
clouds,
%
prec.,
mm/h
press.,
hPa
HPBL,
m
28 february, sun
sun2801:00−1ne399014 0.0 1032360
04:00−1ne399220 0.0 1032408
07:000ene378854 0.0 1032531
10:00+2ene357989 0.0 1032441
13:00+6ene346451 0.0 1030542
16:00+7ene35620 0.0 1029625
19:00+2nne12850 0.0 103126
22:00+1ne22870 0.0 103243
1 march, mon
mon101:000ene12900 0.0 103225
04:00−1e11940 0.0 103124
07:00−1ese11950 0.0 103221
10:00+5se12690 0.0 1030244
13:00+11se11550 0.0 1030500
16:00+10ese22590 0.0 1028491
19:00+3ene12850 0.0 103131
22:00+2e11810 0.0 103122
2 march, tue
tue201:00+1s11850 0.0 103222
04:000ssw11890 0.0 103222
07:000ssw11780 0.0 103222
10:00+6s125511 0.0 1032211
13:00+12s11485 0.0 1031356
16:00+12se11470 0.0 1030367
19:00+5s01630 0.0 103122
22:00+3ssw11640 0.0 103222
3 march, wed
wed301:00+2sw11720 0.0 103322
04:00+2sw12730 0.0 103222
07:00+1sw127433 0.0 103222
10:00+7ssw125950 0.0 1031157
13:00+14s114729 0.0 1028437
16:00+14sse114630 0.0 1026611
19:00+6wnw117015 0.0 102722
22:00+5w117347 0.0 102722
4 march, thu
thu401:00+4sw127526 0.0 102522
04:00+3sw128081 0.0 102431
07:00+3wsw127190 0.0 102322
10:00+6ese0175100 0.5 1021106
13:00+8wsw378595 2.7 1019677
16:00+6sw2597100 3.9 1018313
19:00+4sw249784 4.2 1019106
22:00+4sw129695 0.4 101952